Regional Weather Roundup
Issued by NWS

Home | Current Version | Previous Version | Text Only | Print | Product List | Glossary On
Versions: 1 2 3 4 5 6 7 8 9 10 11 12 13 14 15 16 17 18 19 20 21 22 23 24 25 26 27 28 29 30 31 32 33 34 35 36 37 38 39 40 41 42 43 44 45 46 47 48 49 50
000
ASUS43 KMKX 020821
RWRWI

WISCONSIN REGIONAL WEATHER ROUNDUP
NATIONAL WEATHER SERVICE MILWAUKEE/SULLIVAN WI
300 AM CDT TUE SEP 02 2014

NOTE: "FAIR" INDICATES FEW OR NO CLOUDS BELOW 12,000 FEET WITH NO
SIGNIFICANT WEATHER AND/OR OBSTRUCTIONS TO VISIBILITY.

WIZ001-002-006>008-014>016-023>028-020900-
NORTHWEST WISCONSIN

CITY           SKY/WX    TMP DP  RH WIND       PRES   REMARKS
SUPERIOR ARPT  PTCLDY    53  52  97 SW5       29.78R
ASHLAND        MOCLDY    55  52  89 SW6       29.78R
HAYWARD        PTCLDY    54  53  97 CALM      29.81S
SIREN          PTCLDY    55  53  96 CALM      29.82R
RICE LAKE      PTCLDY    56  54  93 CALM      29.83S
LADYSMITH      PTCLDY    56  55  94 CALM      29.84S
EAU CLAIRE     MOCLDY    60  59  96 CALM      29.82S
MENOMONIE      MOSUNNY   60  58  92 SE3       29.83S
NEW RICHMOND   MOCLDY    60  59  97 S5        29.82S
OSCEOLA        MOCLDY    58  58 100 CALM      29.83S
$$

WIZ003>005-009-010-017-018-020900-
NORTH CENTRAL WISCONSIN

CITY           SKY/WX    TMP DP  RH WIND       PRES   REMARKS
WOODRUFF       CLEAR     52  50  94 CALM      29.83R
RHINELANDER    CLEAR     51  50  96 W6        29.84R
EAGLE RIVER    PTCLDY    50  50 100 CALM      29.82S FOG
LAND O LAKES     N/A     46  46 100 CALM      29.83R FOG
PHILLIPS       CLOUDY    54  53  96 CALM      29.82F
TOMAHAWK       CLEAR     47  46  97 CALM      29.84S
MEDFORD        CLEAR     55  53  95 CALM      29.84S
MERRILL        FOG       49  49 100 CALM      29.84S VSB 3/4
$$

WIZ029-030-035-036-043>047-020900-
CENTRAL WISCONSIN

CITY           SKY/WX    TMP DP  RH WIND       PRES   REMARKS
WAUSAU         CLEAR     57  54  89 CALM      29.83R
MOSINEE        CLEAR     55  55 100 SW3       29.85S
MARSHFIELD     FOG       55  54  96 SW3       29.84F VSB 3/4
STEVENS POINT  CLEAR     53  52  97 CALM      29.84F
WAUPACA        CLEAR     57  56  95 CALM      29.83F FOG
WAUTOMA        FOG       55  54  94 CALM      29.85S VSB 1
WISC RAPIDS    FOG       55  54  96 CALM      29.86R VSB 1
CAMP DOUGLAS   FOG       54  54 100 N2        29.84F VSB 1/2
$$

WIZ011>013-019>022-031-037>040-048>050-020900-
NORTHEAST WISCONSIN

CITY           SKY/WX    TMP DP  RH WIND       PRES   REMARKS
ANTIGO         CLEAR     50  50 100 CALM      29.85R
STURGEON BAY   CLEAR     61  55  82 SW6       29.81S
GREEN BAY      CLEAR     57  56  96 W3        29.81F
MANITOWOC      CLEAR     63  60  90 W3        29.82F
APPLETON       CLEAR     59  59 100 W8        29.83S
CLINTONVILLE   CLEAR     55  54  94 W3        29.83R
OSHKOSH        CLEAR     63  60  90 W5        29.83F
$$

WIZ032>034-041-042-053>061-020900-
SOUTHWEST WISCONSIN

CITY           SKY/WX    TMP DP  RH WIND       PRES   REMARKS
LA CROSSE      CLEAR     63  60  90 S5        29.84F
SPARTA         CLEAR     52  51  97 CALM      29.86F
VIROQUA        FAIR      58  58 100 SW3       29.87F
BOSCOBEL       FOG       61  59  93 S3        29.87F VSB 1/4
PRAIRIE DU CHI CLEAR     58  57  94 SE5       29.87S
PLATTEVILLE    FAIR      62  60  96 CALM      29.90R
$$

WIZ056-057-062-063-064-067-068-020900-
SOUTH CENTRAL WISCONSIN

CITY           SKY/WX    TMP DP  RH WIND       PRES   REMARKS
BARABOO/DELLS  CLEAR     56  55  94 S3        29.86S FOG
LONE ROCK      FOG       63  59  87 NW3       29.87R VSB 1/4
WATERTOWN      CLEAR     58  58 100 CALM      29.86R
MADISON        CLEAR     62  59  90 CALM      29.86R
MIDDLETON      FAIR      60  60  99 CALM      29.87R
MONROE         CLEAR     64  61  88 W8        29.88R
JANESVILLE     CLEAR     63  61  94 CALM      29.87R
$$

WIZ051-052-058>065-066-070>072-020900-
SOUTHEAST WISCONSIN

CITY           SKY/WX    TMP DP  RH WIND       PRES   REMARKS
MILWAUKEE      PTCLDY    67  64  90 W5        29.85S
WAUKESHA       CLEAR     59  59 100 CALM      29.87R
MILWAUKEE/TIMM CLEAR     63  59  88 CALM      29.86S
RACINE         PTCLDY    66  64  93 SW6       29.86F
BURLINGTON     PTCLDY    59  59 100 SW5       29.86S FOG
KENOSHA        PTCLDY    63  62  97 SW6       29.87R FOG
FOND DU LAC    CLEAR     58  56  93 CALM      29.84F
SHEBOYGAN      CLEAR     61  59  93 W5        29.83
WEST BEND      CLEAR     61  59  94 CALM      29.85R FOG
JUNEAU         FOG       58  58  99 SW3       29.87R VSB<1/4
$$

LSZ147-162-020900-
LAKE SUPERIOR

STATION/POSITION TIME  TEMP    WIND        PRES    WAVE
                       AIR SEA DIR/SP/G            HT/PER
                 (UTC) (F)     (DEG/KT/KT) (MB)    (FT/S)
W MID LAKE BUOY  0750   59 57  230/  6/  8 1006.7R   1/ 3
DEVILS ISLAND    0800   62     230/ 11/ 14 1007.5R
PORT WING        0700   59     190/  7/  8 1008.1R
SAXON HARBOR     0700   57     200/  7/ 10 1008.1S
$$

LMZ867-665-643>646-020900-
LAKE MICHIGAN

STATION/POSITION TIME  TEMP    WIND        PRES    WAVE
                       AIR SEA DIR/SP/G            HT/PER
                 (UTC) (F)     (DEG/KT/KT) (MB)    (FT/S)
N MID LAKE BUOY  0750   65 65  250/  8/ 10 1008.0F   2/ 6
NORTHPORT PIER   0700   64     270/  3/  7 1008.8R
KEWAUNEE LAKESHO 0700   63     290/  4/  5 1008.8R
SHEBOYGAN LAKESH 0800   65 48  270/  7/  8 1010.1S
ATWATER BUOY     0800   68     260/  6/  6 1011.9R
MILWAUKEE LAKESH 0800   69     280/  4/  5   N/A
S MID LAKE BUOY  0750   70 70  260/  6/  8 1010.6R   1/ 4
KENOSHA   LAKESH 0800   69     250/  5/  6 1010.8R
$$

TC  - TEMPERATURE IN CELSIUS
VSB - VISIBILITY IN STATUTE MILES
WCI - WIND CHILL INDEX
HX  - HEAT INDEX



USA.gov is the U.S. government's official web portal to all federal, state and local government web resources and services.